Погода в Новоселье

Россия / Ярославская область     56°42′51″N   38°42′38″E
темп.,
°C
ветер,
м/с
пор.,
м/с
влажн.,
%
обл.,
%
осадки,
мм/ч
давл.,
гПа
погр.,
м
24 января, пн
пн2400:00−18ююз1110079 0.0 10359
03:00−18з1110084 0.0 103610
06:00−18ю11100100 0.0 103611
09:00−18юз1110098 0.1 103710
12:00−10з239470 0.0 1036130
15:00−8юз24946 0.0 1034153
18:00−14ююз229974 0.0 103434
21:00−15ююз249859 0.0 103360
25 января, вт
вт2500:00−14ююз37979 0.0 1031101
03:00−14ююз3109610 0.0 1029145
06:00−15ююз38969 0.0 1027121
09:00−15ююз310949 0.0 1025154
12:00−10ююз411886 0.0 1022279
15:00−9ююз4118898 0.0 1019365
18:00−10ююз41190100 0.0 1017296
21:00−11ююз41093100 0.1 1016289
26 января, ср
ср2600:00−10ююз2596100 0.6 1014184
03:00−9ююз1396100 1.7 1014150
06:00−8з1397100 0.7 1014133
09:00−9зсз259786 1.1 1014170
12:00−6ссз3693100 0.2 1015437
15:00−7ссз3693100 0.4 1016413
18:00−13сз259973 0.1 101886
21:00−20зсз2210084 0.1 101920
27 января, чт
чт2700:00−22з11100100 0.0 10199
03:00−23зюз11100100 0.0 10199
06:00−21юз1110097 0.0 10189
09:00−17ю2298100 0.0 101741
12:00−11ю3589100 0.0 1015188
15:00−10ю3890100 0.0 1014275
18:00−12ю3109365 0.0 1013251
21:00−12ю4129475 0.0 1012313
28 января, пт
пт2800:00−12ю4139373 0.0 1010316
03:00−12ю4139099 0.0 1009362
06:00−12ююв51392100 0.1 1007373
09:00−11ююв51392100 0.1 1006382
12:00−9ююв51391100 0.0 1005424
15:00−7ююв51391100 0.1 1004476
18:00−7ююв51292100 0.2 1003554
21:00−7ююв41194100 0.9 1002548